Location: Cisewo
(53.3833°N, 14.9000°E)
Time: 12:31:35
(UTC+00:00)

ERS-2 - Pass Details

Date: 18 April 2021
Orbit: 491 x 497 km, 98.6° (Epoch: 16 May)

Event Time Altitude Azimuth Distance (km) Brightness Sun altitude
Rises 19:07:38 0° 10° (N) 2,596 6.1 -8.9°
Reaches altitude 10° 19:09:47 10° 4° (N) 1,707 5.2 -9.2°
Maximum altitude 19:13:15 41° 293° (WNW) 732 3.6 -9.6°
Drops below altitude 10° 19:16:41 10° 223° (SW) 1,690 4.9 -10.1°
Sets 19:18:48 0° 216° (SW) 2,566 5.8 -10.3°
